Location: Praha
(50.0830°N, 14.4670°E)
Time: 21:55:55
(UTC+02:00)

ISS - Pass Details

Date: 21 September 2019
Orbit: 411 x 421 km, 51.6° (Epoch: 19 September)

Event Time Altitude Azimuth Distance (km) Brightness Sun altitude
Rises 20:34:47 0° 228° (SW) 2,335 0.4 -15.2°
Maximum altitude 20:40:03 38° 150° (SSE) 639 -3.2 -16.0°
Enters shadow 20:40:17 38° 139° (SE) 647 -3.3 -16.0°
